This is the latest recevied weather packets stored in our database for station/object N0HOT. If no packets are shown the sender has not sent any weather packets the latest 10 day(s).
| Time | Temp. | Humidity | Pressure | Rain* | Wind** | Luminosity | Snow |
|---|---|---|---|---|---|---|---|
| 1777514285 | 8.89° C | 46% | 1017.3 hPa | 0 mm | - | 0 W/m² | - |
| 1777513980 | 9.44° C | 46% | 1017.3 hPa | 0 mm | - | 0 W/m² | - |
| 1777513678 | 9.44° C | 45% | 1017 hPa | 0 mm | - | 0 W/m² | - |
| 1777513375 | 10° C | 42% | 1017 hPa | 0 mm | - | 0 W/m² | - |
| 1777513071 | 10° C | 40% | 1016.7 hPa | 0 mm | - | 0 W/m² | - |
| 1777512767 | 10° C | 40% | 1016.7 hPa | 0 mm | - | 0 W/m² | - |
| 1777512464 | 10° C | 40% | 1016.7 hPa | 0 mm | - | 0 W/m² | - |
| 1777512160 | 10.56° C | 39% | 1016.7 hPa | 0 mm | - | 0 W/m² | - |
| 1777511858 | 10.56° C | 39% | 1016.7 hPa | 0 mm | - | 0 W/m² | - |
| 1777511556 | 10.56° C | 38% | 1016.7 hPa | 0 mm | - | 0 W/m² | - |
| 1777510948 | 11.11° C | 37% | 1016.7 hPa | 0 mm | - | 2 W/m² | - |
| 1777510645 | 11.11° C | 38% | 1016.7 hPa | 0 mm | - | 5 W/m² | - |
| 1777510341 | 11.11° C | 36% | 1016.3 hPa | 0 mm | - | 7 W/m² | - |
| 1777510038 | 11.11° C | 35% | 1016.3 hPa | 0 mm | - | 10 W/m² | - |
| 1777509430 | 11.67° C | 36% | 1016.7 hPa | 0 mm | - | 17 W/m² | - |
| 1777509128 | 11.67° C | 35% | 1016.3 hPa | 0 mm | - | 20 W/m² | - |
| 1777508824 | 11.67° C | 33% | 1016.3 hPa | 0 mm | - | 25 W/m² | - |
| 1777508522 | 11.67° C | 34% | 1016.3 hPa | 0 mm | - | 24 W/m² | - |
| 1777508219 | 11.67° C | 32% | 1016.3 hPa | 0 mm | - | 32 W/m² | - |
| 1777507915 | 11.67° C | 36% | 1016 hPa | 0 mm | - | 41 W/m² | - |
| 1777507613 | 11.67° C | 36% | 1016 hPa | 0 mm | - | 39 W/m² | - |
| 1777506704 | 12.22° C | 31% | 1016 hPa | 0 mm | - | 47 W/m² | - |
| 1777499425 | 13.33° C | 30% | 1016 hPa | 0 mm | - | 113 W/m² | - |
| 1777498212 | 13.33° C | 29% | 1016.3 hPa | 0 mm | - | 509 W/m² | - |
| 1777497606 | 13.33° C | 27% | 1016.3 hPa | 0 mm | - | 518 W/m² | - |
* Rain latest hour (hover to see other rain measurements)
** Current wind speed in m/s (hover to see current wind gust speed)